軌道要素
Epoch 2006 Apr. 15.0 TT = JDT 2453840.5
T 2006 Apr. 10.76674 TT Rudenko
q 5.1909266 (2000.0) P Q
z -0.0004948 Peri. 92.46728 -0.66670203 -0.63511145
+/-0.0000003 Node 48.45382 +0.28216467 -0.69945853
e 1.0025687 Incl. 31.41066 +0.68984890 -0.32770598
From 2333 observations 2003 Oct. 30-2008 Mar. 9, mean residual 0".5.
|